sat.trackr.live / text

‹ back to catalog

STARLINK-35480

NORAD 66242 · 2025-245J

PAYLOAD ACTIVE UNKNOWN

§ Identity

Operator
Country
US
Launch date
2025-10-29
Launch site
AFETR
Launch vehicle
Mass (kg)
RCS (m²)

Purposes: comms

External: N2YO · Heavens-Above · Gunter

§ Orbital elements

Epoch: 2026-09-20T22:54:18.565056Z

Period
93.85 min
Inclination
53.1603°
Eccentricity
0.0002685
Mean motion
15.34406517 rev/d
Perigee alt
460.8 km
Apogee alt
464.5 km
Semi-major
6,840.8 km
B*
5.4485e-4
RAAN
95.4047°
Arg perigee
62.1742°
Mean anomaly
297.9533°
Rev number
5,117

§ Raw data

STARLINK-354801 66242U 25245J   26263.95438154  .00018081  00000+0  54485-3 0  99922 66242  53.1603  95.4047 0002685  62.1742 297.9533 15.34406517 51170

JSON: /api/v1/satellites/66242 · /tle

For live sub-satellite position, see the globe view (requires WebGL).

§ Visibility from observer

Set your observer location to see the next 7 days of passes ≥ 10°. The values pass through the URL so the page stays shareable.

No JS? Fill the form by hand. The geolocation button needs JavaScript.